This demonstration page uses our WeatherBlox Daily Observations layout. Learn more.

40.92945, -100.16068

Hourly Observations for January 23, 2017

Temp ( °F °C ) Dew Point ( °F °C ) Humidity (%) Winds ( mph kmh ) Pressure ( in mb ) Visibility ( mi km ) Precip ( " mm )
12:15 am 00:15 Clear 26 -3.2 23 -4.8 89 89 Calm 30 1016 10 16.0934 0 0
12:35 am 00:35 Clear 26 -3.5 23 -4.9 90 90 Calm 30.03 1017 10 16.0934 0 0
12:55 am 00:55 Clear 25 -3.9 22 -5.3 90 90 Calm 30.03 1017 10 16.0934 0 0
1:15 am 01:15 Clear 26 -3.1 24 -4.6 90 90 Calm 30 1016 10 16.0934 0 0
1:35 am 01:35 Clear 26 -3.5 23 -5 89 89 Calm 30.03 1017 10 16.0934 0 0
1:55 am 01:55 Clear 26 -3.5 24 -4.7 92 92 Calm 29.97 1015 10 16.0934 0 0
2:15 am 02:15 Clear 26 -3.4 24 -4.7 91 91 Calm 29.97 1015 10 16.0934 0 0
2:35 am 02:35 Clear 26 -3.3 24 -4.6 91 91 Calm 29.97 1015 10 16.0934 0 0
2:55 am 02:55 Clear 26 -3.2 24 -4.5 91 91 Calm 29.97 1015 10 16.0934 0 0
3:15 am 03:15 Clear 27 -2.8 25 -4 92 92 Calm 29.97 1015 10 16.0934 0 0
3:35 am 03:35 Clear 27 -2.8 25 -4 92 92 Calm 29.94 1014 10 16.0934 0 0
3:55 am 03:55 Clear 27 -2.6 25 -4 90 90 Calm 29.94 1014 10 16.0934 0 0
4:15 am 04:15 Clear 27 -2.6 25 -3.8 92 92 Calm 29.94 1014 10 16.0934 0 0
4:35 am 04:35 Clear 27 -2.8 25 -4.1 91 91 Calm 29.94 1014 10 16.0934 0 0
4:55 am 04:55 Clear 27 -3 24 -4.2 92 92 Calm 29.94 1014 10 16.0934 0 0
5:15 am 05:15 Clear 26 -3.5 23 -4.8 91 91 Calm 29.91 1013 10 16.0934 0 0
5:35 am 05:35 Partly Cloudy 26 -3.5 24 -4.7 92 92 Calm 29.94 1014 10 16.0934 0 0
5:55 am 05:55 Cloudy 27 -2.6 25 -3.7 92 92 Calm 29.94 1014 10 16.0934 0 0
6:15 am 06:15 Cloudy 28 -2.1 26 -3.4 91 91 Calm 29.91 1013 10 16.0934 0 0
6:35 am 06:35 Cloudy 29 -1.7 26 -3.1 90 90 Calm 29.91 1013 10 16.0934 0 0
6:55 am 06:55 Cloudy 29 -1.8 26 -3.1 91 91 ESE 3 6 29.94 1014 10 16.0934 0 0
7:15 am 07:15 Cloudy 29 -1.5 27 -3 90 90 Calm 29.94 1014 10 16.0934 0 0
7:35 am 07:35 Partly Cloudy 29 -1.5 26 -3.1 89 89 E 8 13 29.91 1013 10 16.0934 0 0
7:55 am 07:55 Partly Cloudy 30 -1 27 -3 86 86 SE 7 11 29.88 1012 10 16.0934 0 0
8:15 am 08:15 Partly Cloudy 30 -1 27 -3 86 86 ESE 7 11 29.88 1012 10 16.0934 0 0
8:35 am 08:35 Sunny 31 -0.7 27 -2.7 87 87 ESE 7 11 29.88 1012 10 16.0934 0 0
8:55 am 08:55 Sunny 31 -0.5 28 -2.3 88 88 ESE 7 11 29.85 1011 10 16.0934 0 0
9:15 am 09:15 Mostly Cloudy 31 -0.5 28 -2.4 87 87 SE 8 13 29.88 1012 10 16.0934 0 0
9:35 am 09:35 Partly Cloudy 32 0 28 -2.1 86 86 SE 9 15 29.85 1011 10 16.0934 0 0
9:55 am 09:55 Sunny 32 0.1 29 -1.7 88 88 SE 10 17 29.85 1011 10 16.0934 0 0
10:15 am 10:15 Partly Cloudy 34 0.9 30 -1 87 87 SE 10 17 29.85 1011 10 16.0934 0 0
10:35 am 10:35 Partly Cloudy 36 2 31 -0.7 83 83 SE 10 17 29.83 1010 10 16.0934 0 0
10:55 am 10:55 Partly Cloudy 38 3.1 32 -0.1 80 80 ESE 12 19 29.83 1010 10 16.0934 0 0
11:15 am 11:15 Cloudy 39 3.7 32 -0.1 76 76 ESE 9 15 29.83 1010 10 16.0934 0 0
11:35 am 11:35 Mostly Cloudy 40 4.7 32 0 72 72 ESE 9 15 29.77 1008 10 16.0934 0 0
11:55 am 11:55 Partly Cloudy 41 4.8 32 0 71 71 SE 10 17 29.77 1008 10 16.0934 0 0
12:15 pm 12:15 Sunny 43 5.9 33 0.3 68 68 SE 10 17 29.74 1007 10 16.0934 0 0
12:35 pm 12:35 Sunny 45 7.2 33 0.3 62 62 SSE 13 20 29.71 1006 10 16.0934 0 0
12:55 pm 12:55 Sunny 46 7.6 32 -0.1 59 59 SE 13 20 29.71 1006 10 16.0934 0 0
1:15 pm 13:15 Sunny 47 8.2 32 0.1 57 57 SE 16 26 29.71 1006 10 16.0934 0 0
1:35 pm 13:35 Sunny 47 8.1 32 0 57 57 SE 16 26 29.68 1005 10 16.0934 0 0
1:55 pm 13:55 Sunny 47 8.4 32 -0.1 55 55 SSE 17 28 29.68 1005 10 16.0934 0 0
2:15 pm 14:15 Sunny 47 8.5 32 0.1 56 56 SSE 20 31 29.65 1004 10 16.0934 0 0
2:35 pm 14:35 Sunny 48 8.7 32 -0.1 54 54 SSE 16 26 29.65 1004 10 16.0934 0 0
2:55 pm 14:55 Sunny 47 8.6 32 0.1 55 55 SSE 15 24 29.65 1004 10 16.0934 0 0
3:15 pm 15:15 Sunny 48 9.1 32 0 53 53 SSE 15 24 29.65 1004 10 16.0934 0 0
3:35 pm 15:35 Sunny 47 8.6 32 0 55 55 SSE 12 19 29.65 1004 10 16.0934 0 0
3:55 pm 15:55 Sunny 47 8.4 32 0 56 56 SSE 12 19 29.65 1004 10 16.0934 0 0
4:15 pm 16:15 Sunny 48 9 32 0 54 54 SE 15 24 29.65 1004 10 16.0934 0 0
4:35 pm 16:35 Sunny 48 8.9 32 0 54 54 SE 12 19 29.65 1004 10 16.0934 0 0
4:55 pm 16:55 Sunny 47 8.4 32 0 56 56 SE 12 19 29.62 1003 10 16.0934 0 0
5:15 pm 17:15 Sunny 45 7.1 32 0.2 62 62 ESE 8 13 29.65 1004 10 16.0934 0 0
5:35 pm 17:35 Sunny 45 7 33 0.6 64 64 ESE 9 15 29.65 1004 10 16.0934 0 0
5:55 pm 17:55 Clear 43 6.1 33 0.5 68 68 SE 10 17 29.68 1005 10 16.0934 0 0
6:15 pm 18:15 Clear 42 5.3 33 0.3 70 70 SE 8 13 29.68 1005 10 16.0934 0 0
6:35 pm 18:35 Clear 40 4.7 32 0.2 73 73 ESE 9 15 29.68 1005 10 16.0934 0 0
6:55 pm 18:55 Clear 38 3.6 32 0 78 78 ESE 12 19 29.68 1005 10 16.0934 0 0
7:15 pm 19:15 Clear 37 2.9 33 0.6 85 85 ESE 10 17 29.71 1006 10 16.0934 0 0
7:35 pm 19:35 Clear 35 1.7 32 0.2 90 90 ESE 10 17 29.74 1007 7 11.26538 0 0
7:55 pm 19:55 Clear 35 1.5 32 0.2 91 91 ESE 10 17 29.71 1006 7 11.26538 0 0
8:15 pm 20:15 Mostly Cloudy with Mist and Fog 33 0.7 32 0 95 95 ESE 9 15 29.74 1007 1.5 2.41401 0 0
8:35 pm 20:35 Cloudy with Fog 33 0.5 32 -0.1 96 96 ESE 10 17 29.77 1008 0.5 0.80467 0 0
8:55 pm 20:55 Cloudy with Fog 33 0.4 32 0 97 97 ESE 9 15 29.77 1008 0.5 0.80467 0 0
9:15 pm 21:15 Cloudy with Fog 33 0.4 32 -0.1 96 96 E 10 17 29.77 1008 0.5 0.80467 0 0
9:35 pm 21:35 Cloudy with Mist and Fog 33 0.5 32 0 96 96 E 12 19 29.77 1008 0.75 1.207005 0 0
9:55 pm 21:55 Cloudy with Fog 33 0.5 32 0 96 96 E 12 19 29.77 1008 0.5 0.80467 0 0
10:15 pm 22:15 Cloudy with Mist and Fog 33 0.5 32 0 96 96 E 9 15 29.77 1008 1.25 2.011675 0 0
10:35 pm 22:35 Cloudy with Mist and Fog 32 0.2 32 0 99 99 E 9 15 29.77 1008 3 4.82802 0 0
10:55 pm 22:55 Cloudy with Mist and Fog 32 0.2 32 -0.2 97 97 E 9 15 29.77 1008 2.5 4.02335 0 0
11:15 pm 23:15 Cloudy with Mist and Fog 32 0.2 32 -0.1 98 98 E 10 17 29.77 1008 3 4.82802 0 0
11:35 pm 23:35 Cloudy with Mist and Fog 32 0.2 32 0 99 99 E 10 17 29.77 1008 2.5 4.02335 0 0
11:55 pm 23:55 Cloudy with Mist and Fog 33 0.3 32 0 98 98 E 12 19 29.71 1006 3 4.82802 0 0

Powered by AerisWeather